When you browse on this site, cookies collect data to enhance your experience and personalize the content and advertising you see.
Visit our Privacy Policy to learn more. By continuing to use the site, you agree to this use of cookies and data.
  • In Slovakia
  • List of Countries
  • For 7 days
  • Water Temperature
  • Satellite Maps
  • Weather Map
  • Weather Widgets
  • user-avatar
    Login

    Hourly Weather Kurytyba

    Today, 14 December, Friday

    Time Temperature Precipitation Wind Pressure Humidity
    00:00 +18°C° 0.2 mm 0 mps 682 mmHg 94%
    01:00 +18°C° 0 mm 0 mps 682 mmHg 95%
    02:00 +18°C° 0 mm 0 mps 682 mmHg 95%
    03:00 +18°C° 0 mm 0 mps 682 mmHg 95%
    04:00 +18°C° 0 mm 0 mps 682 mmHg 95%
    05:00 +18°C° 0 mm 0 mps 682 mmHg 94%
    06:00 +20°C° 0 mm 1 mps 682 mmHg 93%
    07:00 +23°C° 0 mm 1 mps 682 mmHg 81%
    08:00 +25°C° 0 mm 1 mps 683 mmHg 70%
    09:00 +28°C° 0 mm 2 mps 684 mmHg 58%
    10:00 +29°C° 0.1 mm 2 mps 684 mmHg 53%
    11:00 +31°C° 0.1 mm 2 mps 684 mmHg 49%
    12:00 +32°C° 0.1 mm 2 mps 684 mmHg 44%
    13:00 +31°C° 0.2 mm 2 mps 684 mmHg 47%
    14:00 +31°C° 0.2 mm 1 mps 683 mmHg 49%
    15:00 +30°C° 0.2 mm 1 mps 683 mmHg 51%
    16:00 +29°C° 0.3 mm 1 mps 683 mmHg 57%
    17:00 +28°C° 0.3 mm 1 mps 683 mmHg 63%
    18:00 +27°C° 0.3 mm 1 mps 683 mmHg 69%
    19:00 +25°C° 0.6 mm 1 mps 683 mmHg 76%
    20:00 +24°C° 0.6 mm 1 mps 683 mmHg 83%
    21:00 +22°C° 0.6 mm 1 mps 683 mmHg 90%
    22:00 +22°C° 0.2 mm 1 mps 683 mmHg 91%
    23:00 +21°C° 0.2 mm 1 mps 683 mmHg 92%

    Tomorrow, 15 December, Saturday

    Time Temperature Precipitation Wind Pressure Humidity
    00:00 +21°C° 0.2 mm 1 mps 683 mmHg 92%
    01:00 +21°C° 0 mm 1 mps 683 mmHg 92%
    02:00 +20°C° 0 mm 1 mps 682 mmHg 92%
    03:00 +20°C° 0 mm 1 mps 682 mmHg 92%
    04:00 +20°C° 0 mm 1 mps 682 mmHg 91%
    05:00 +20°C° 0 mm 1 mps 683 mmHg 90%
    06:00 +20°C° 0 mm 1 mps 683 mmHg 90%
    07:00 +23°C° 0.1 mm 1 mps 684 mmHg 80%
    08:00 +26°C° 0.1 mm 1 mps 685 mmHg 70%
    09:00 +28°C° 0.1 mm 1 mps 686 mmHg 60%
    10:00 +30°C° 0.5 mm 1 mps 686 mmHg 57%
    11:00 +31°C° 0.5 mm 1 mps 685 mmHg 54%
    12:00 +32°C° 0.5 mm 1 mps 685 mmHg 50%
    13:00 +32°C° 0.1 mm 1 mps 685 mmHg 49%
    14:00 +32°C° 0.1 mm 1 mps 685 mmHg 48%
    15:00 +32°C° 0.1 mm 1 mps 684 mmHg 47%
    16:00 +31°C° 0.1 mm 1 mps 684 mmHg 53%
    17:00 +29°C° 0.1 mm 1 mps 683 mmHg 59%
    18:00 +28°C° 0.1 mm 1 mps 683 mmHg 65%
    19:00 +26°C° 0.4 mm 1 mps 683 mmHg 72%
    20:00 +22°C° 0.4 mm 0 mps 683 mmHg 80%
    21:00 +21°C° 0.4 mm 0 mps 683 mmHg 88%
    22:00 +20°C° 0.5 mm 0 mps 683 mmHg 90%
    23:00 +20°C° 0.5 mm 0 mps 683 mmHg 91%

    Day after tomorrow, 16 December, Sunday

    Time Temperature Precipitation Wind Pressure Humidity
    00:00 +19°C° 0.5 mm 0 mps 684 mmHg 93%
    01:00 +19°C° 0 mm 0 mps 683 mmHg 94%
    02:00 +19°C° 0 mm 0 mps 683 mmHg 95%
    03:00 +19°C° 0 mm 0 mps 682 mmHg 96%
    04:00 +19°C° 0 mm 0 mps 682 mmHg 95%
    05:00 +19°C° 0 mm 0 mps 683 mmHg 95%
    06:00 +19°C° 0 mm 0 mps 683 mmHg 95%
    07:00 +21°C° 0 mm 0 mps 684 mmHg 84%
    08:00 +25°C° 0 mm 1 mps 685 mmHg 74%
    09:00 +28°C° 0 mm 1 mps 685 mmHg 63%
    10:00 +29°C° 0.1 mm 1 mps 685 mmHg 56%
    11:00 +31°C° 0.1 mm 1 mps 685 mmHg 50%
    12:00 +32°C° 0.1 mm 1 mps 686 mmHg 44%
    13:00 +31°C° 0.2 mm 1 mps 685 mmHg 50%
    14:00 +30°C° 0.2 mm 1 mps 684 mmHg 56%
    15:00 +29°C° 0.2 mm 1 mps 683 mmHg 63%
    16:00 +28°C° 1.5 mm 1 mps 683 mmHg 69%
    17:00 +27°C° 1.5 mm 1 mps 682 mmHg 75%
    18:00 +26°C° 1.5 mm 1 mps 682 mmHg 81%
    19:00 +25°C° 0.3 mm 1 mps 682 mmHg 84%
    20:00 +22°C° 0.3 mm 0 mps 682 mmHg 87%
    21:00 +21°C° 0.3 mm 0 mps 682 mmHg 90%
    22:00 +20°C° 0 mm 0 mps 682 mmHg 91%
    23:00 +20°C° 0 mm 0 mps 682 mmHg 91%

    17 December, Monday

    Time Temperature Precipitation Wind Pressure Humidity
    00:00 +20°C° 0 mm 0 mps 682 mmHg 92%
    01:00 +19°C° 0 mm 0 mps 682 mmHg 92%
    02:00 +19°C° 0 mm 0 mps 681 mmHg 92%
    03:00 +19°C° 0 mm 0 mps 681 mmHg 92%
    04:00 +19°C° 0 mm 0 mps 681 mmHg 92%
    05:00 +19°C° 0 mm 0 mps 681 mmHg 91%
    06:00 +19°C° 0 mm 0 mps 681 mmHg 91%
    07:00 +23°C° 0 mm 1 mps 682 mmHg 80%
    08:00 +26°C° 0 mm 1 mps 683 mmHg 69%
    09:00 +29°C° 0 mm 1 mps 683 mmHg 59%
    10:00 +30°C° 0 mm 2 mps 683 mmHg 54%
    11:00 +31°C° 0 mm 2 mps 683 mmHg 49%
    12:00 +34°C° 0 mm 2 mps 683 mmHg 44%
    13:00 +32°C° 0.1 mm 2 mps 682 mmHg 46%
    14:00 +32°C° 0.1 mm 2 mps 682 mmHg 47%
    15:00 +31°C° 0.1 mm 2 mps 681 mmHg 49%
    16:00 +30°C° 0.2 mm 2 mps 681 mmHg 56%
    17:00 +29°C° 0.2 mm 2 mps 681 mmHg 63%
    18:00 +27°C° 0.2 mm 2 mps 681 mmHg 70%
    19:00 +26°C° 0.1 mm 2 mps 681 mmHg 74%
    20:00 +25°C° 0.1 mm 2 mps 681 mmHg 79%
    21:00 +23°C° 0.1 mm 1 mps 681 mmHg 83%
    22:00 +23°C° 0 mm 1 mps 681 mmHg 84%
    23:00 +22°C° 0 mm 1 mps 681 mmHg 86%

    18 December, Tuesday

    Time Temperature Precipitation Wind Pressure Humidity
    00:00 +22°C° 0 mm 1 mps 681 mmHg 87%
    01:00 +22°C° 0.1 mm 1 mps 680 mmHg 87%
    02:00 +22°C° 0.1 mm 1 mps 680 mmHg 87%
    03:00 +22°C° 0.1 mm 1 mps 680 mmHg 87%
    04:00 +22°C° 0.1 mm 1 mps 680 mmHg 87%
    05:00 +22°C° 0.1 mm 1 mps 680 mmHg 88%
    06:00 +22°C° 0.1 mm 1 mps 681 mmHg 88%
    07:00 +24°C° 0 mm 1 mps 681 mmHg 81%
    08:00 +26°C° 0 mm 2 mps 682 mmHg 73%
    09:00 +28°C° 0 mm 2 mps 682 mmHg 66%
    10:00 +29°C° 0.2 mm 3 mps 682 mmHg 62%
    11:00 +30°C° 0.2 mm 3 mps 682 mmHg 57%
    12:00 +31°C° 0.2 mm 3 mps 682 mmHg 53%
    13:00 +31°C° 0.7 mm 3 mps 682 mmHg 57%
    14:00 +30°C° 0.7 mm 3 mps 682 mmHg 61%
    15:00 +30°C° 0.7 mm 2 mps 682 mmHg 64%
    16:00 +28°C° 1.9 mm 2 mps 682 mmHg 74%
    17:00 +26°C° 1.9 mm 2 mps 681 mmHg 83%
    18:00 +24°C° 1.9 mm 1 mps 681 mmHg 93%
    19:00 +23°C° 0.9 mm 1 mps 681 mmHg 94%
    20:00 +22°C° 0.9 mm 1 mps 681 mmHg 95%
    21:00 +20°C° 0.9 mm 0 mps 682 mmHg 96%
    22:00 +20°C° 0.3 mm 0 mps 682 mmHg 96%
    23:00 +19°C° 0.3 mm 0 mps 682 mmHg 97%

    19 December, Wednesday

    Time Temperature Precipitation Wind Pressure Humidity
    00:00 +19°C° 0.3 mm 0 mps 682 mmHg 97%
    01:00 +19°C° 0.2 mm 0 mps 681 mmHg 97%
    02:00 +19°C° 0.2 mm 0 mps 681 mmHg 97%
    03:00 +19°C° 0.2 mm 0 mps 680 mmHg 97%
    04:00 +19°C° 0 mm 0 mps 680 mmHg 97%
    05:00 +19°C° 0 mm 0 mps 680 mmHg 97%
    06:00 +19°C° 0 mm 0 mps 681 mmHg 97%
    07:00 +23°C° 0 mm 1 mps 681 mmHg 86%
    08:00 +25°C° 0 mm 1 mps 682 mmHg 76%
    09:00 +27°C° 0 mm 1 mps 682 mmHg 65%
    10:00 +29°C° 0.1 mm 1 mps 682 mmHg 58%
    11:00 +31°C° 0.1 mm 2 mps 682 mmHg 52%
    12:00 +34°C° 0.1 mm 2 mps 682 mmHg 45%
    13:00 +32°C° 0.2 mm 2 mps 681 mmHg 48%
    14:00 +32°C° 0.2 mm 2 mps 681 mmHg 50%
    15:00 +31°C° 0.2 mm 2 mps 680 mmHg 53%
    16:00 +29°C° 1.9 mm 1 mps 680 mmHg 63%
    17:00 +27°C° 1.9 mm 1 mps 680 mmHg 73%
    18:00 +25°C° 1.9 mm 1 mps 680 mmHg 83%
    19:00 +24°C° 2.8 mm 1 mps 680 mmHg 86%
    20:00 +23°C° 2.8 mm 1 mps 680 mmHg 90%
    21:00 +22°C° 2.8 mm 1 mps 680 mmHg 94%
    22:00 +22°C° 1.2 mm 1 mps 680 mmHg 95%
    23:00 +20°C° 1.2 mm 0 mps 680 mmHg 96%
    Show more